FW1790 Weather Reports


time (UTC)temp
C
wind
direction
speed
KPH
gust
KPH
rain 1hr
cm
rain 24hr
cm
rain mn
cm
humidity
%
barometer
mb
20260502150221 12 163 9.7 14.5 0.00 0.00 0.00 45 1020.0
20260502130720 10 169 8.0 9.7 0.00 0.00 0.00 51 1020.0
20260502130221 9 189 11.3 14.5 0.00 0.00 0.00 52 1020.0
20260502123720 9 174 8.0 11.3 0.00 0.00 0.00 57 1020.0
20260502123221 9 170 11.3 14.5 0.00 0.00 0.00 57 1020.0
20260502122720 9 164 9.7 14.5 0.00 0.00 0.00 57 1020.0
20260502122220 9 157 9.7 11.3 0.00 0.00 0.00 57 1020.0
20260502121721 9 173 9.7 9.7 0.00 0.00 0.00 57 1020.0
20260502121220 9 172 9.7 12.9 0.00 0.00 0.00 58 1020.0
20260502120720 10 166 12.9 14.5 0.00 0.00 0.00 58 1020.0
20260502120220 10 164 8.0 11.3 0.00 0.00 0.00 58 1020.0
20260502115720 10 160 9.7 12.9 0.00 0.00 0.00 59 1020.0
20260502115221 10 160 9.7 12.9 0.00 0.00 0.00 59 1020.0
20260502114721 10 160 11.3 14.5 0.00 0.00 0.00 59 1020.0
20260502114221 10 165 11.3 14.5 0.00 0.00 0.00 59 1020.0
20260502113720 10 165 9.7 12.9 0.00 0.00 0.00 59 1020.0
20260502113221 10 157 9.7 11.3 0.00 0.00 0.00 58 1020.0
20260502112723 10 158 9.7 12.9 0.00 0.00 0.00 59 1020.0
20260502112220 10 163 11.3 14.5 0.00 0.00 0.00 59 1020.0
20260502111720 10 165 11.3 14.5 0.00 0.00 0.00 59 1020.0
20260502111220 10 165 9.7 14.5 0.00 0.00 0.00 62 1020.0
20260502110720 10 157 8.0 11.3 0.00 0.00 0.00 62 1020.0
20260502110223 10 158 9.7 12.9 0.00 0.00 0.00 62 1020.0
20260502105721 10 167 9.7 12.9 0.00 0.00 0.00 62 1020.0
20260502105221 10 183 9.7 11.3 0.00 0.00 0.00 59 1020.0
20260502104720 10 185 6.4 9.7 0.00 0.00 0.00 56 1020.0
20260502104220 10 171 8.0 11.3 0.00 0.00 0.00 54 1020.0
20260502103720 10 175 8.0 11.3 0.00 0.00 0.00 51 1020.0
20260502103222 10 162 9.7 12.9 0.00 0.00 0.00 51 1020.0
20260502102720 10 163 6.4 8.0 0.00 0.00 0.00 53 1020.0
20260502102221 11 174 6.4 14.5 0.00 0.00 0.00 52 1020.0
20260502101720 11 180 9.7 12.9 0.00 0.00 0.00 50 1020.0
20260502101220 11 178 9.7 12.9 0.00 0.00 0.00 52 1020.0
20260502100720 11 183 9.7 14.5 0.00 0.00 0.00 51 1020.0
20260502100221 11 185 9.7 14.5 0.00 0.00 0.00 50 1020.0
20260502091220 9 158 4.8 6.4 0.00 0.00 0.00 47 1020.0
20260502090720 9 200 4.8 4.8 0.00 0.00 0.00 46 1020.0
20260502090220 9 190 4.8 4.8 0.00 0.00 0.00 45 1020.0
20260502071220 8 257 6.4 8.0 0.00 0.00 0.00 50 1020.0
20260502070720 8 257 4.8 4.8 0.00 0.00 0.00 50 1020.0
20260502070221 8 136 1.6 3.2 0.00 0.00 0.00 50 1021.0
20260502065247 8 248 4.8 6.4 0.00 0.00 0.00 49 1020.0
20260502064720 8 256 6.4 8.0 0.00 0.00 0.00 48 1020.0
20260502064221 9 251 8.0 9.7 0.00 0.00 0.00 48 1020.0
20260502063720 9 255 6.4 6.4 0.00 0.00 0.00 47 1020.0
20260502063220 9 262 6.4 8.0 0.00 0.00 0.00 46 1020.0
20260502062720 10 250 4.8 6.4 0.00 0.00 0.00 46 1020.0
20260502062221 10 252 6.4 8.0 0.00 0.00 0.00 45 1020.0
20260502061720 10 248 8.0 11.3 0.00 0.00 0.00 45 1020.0
20260502061220 10 248 6.4 8.0 0.00 0.00 0.00 46 1020.0
20260502060721 10 245 6.4 6.4 0.00 0.00 0.00 45 1020.0
20260502060220 10 258 3.2 4.8 0.00 0.00 0.00 45 1020.0
20260502055720 11 266 1.6 3.2 0.00 0.00 0.00 44 1020.0
20260502055221 11 268 6.4 6.4 0.00 0.00 0.00 41 1020.0
20260502054720 10 266 6.4 6.4 0.00 0.00 0.00 43 1020.0
20260502054220 10 267 4.8 6.4 0.00 0.00 0.00 44 1020.0
20260502053720 11 269 6.4 8.0 0.00 0.00 0.00 42 1020.0
20260502053220 11 264 6.4 8.0 0.00 0.00 0.00 42 1020.0
20260502052720 11 261 4.8 6.4 0.00 0.00 0.00 42 1020.0
20260502052222 11 264 4.8 6.4 0.00 0.00 0.00 42 1020.0
20260502051720 11 259 6.4 6.4 0.00 0.00 0.00 41 1020.0
20260502051220 11 269 3.2 4.8 0.00 0.00 0.00 41 1020.0
20260502050720 11 277 4.8 6.4 0.00 0.00 0.00 40 1020.0
20260502050221 11 270 4.8 6.4 0.00 0.00 0.00 39 1020.0
20260502045720 11 261 6.4 8.0 0.00 0.00 0.00 40 1020.0
20260502045220 11 256 4.8 6.4 0.00 0.00 0.00 40 1020.0
20260502044720 11 256 4.8 6.4 0.00 0.00 0.00 40 1020.0
20260502044220 11 255 6.4 6.4 0.00 0.00 0.00 40 1020.0
20260502043720 11 262 6.4 6.4 0.00 0.00 0.00 40 1020.0
20260502043221 11 278 3.2 4.8 0.00 0.00 0.00 40 1020.0
20260502042720 12 267 4.8 6.4 0.00 0.00 0.00 39 1020.0
20260502042220 12 269 4.8 4.8 0.00 0.00 0.00 38 1020.0
20260502041720 12 257 4.8 4.8 0.00 0.00 0.00 37 1020.0
20260502041226 12 268 3.2 4.8 0.00 0.00 0.00 36 1020.0
20260502040720 12 269 4.8 6.4 0.00 0.00 0.00 36 1020.0
20260502040220 12 267 3.2 3.2 0.00 0.00 0.00 36 1020.0
20260502035721 12 0 0.0 0.0 0.00 0.00 0.00 35 1020.0
20260502035221 13 0 0.0 0.0 0.00 0.00 0.00 34 1020.0
20260502034720 12 123 3.2 3.2 0.00 0.00 0.00 35 1020.0
20260502034222 12 340 0.0 3.2 0.00 0.00 0.00 36 1020.0
20260502033720 13 307 3.2 6.4 0.00 0.00 0.00 36 1020.0
20260502033220 13 265 3.2 6.4 0.00 0.00 0.00 34 1019.0
20260502032720 13 299 3.2 3.2 0.00 0.00 0.00 32 1019.0
20260502032221 14 295 3.2 4.8 0.00 0.00 0.00 32 1019.0
20260502031721 14 294 3.2 6.4 0.00 0.00 0.00 31 1019.0
20260502031220 14 277 3.2 6.4 0.00 0.00 0.00 31 1019.0
20260502030721 14 302 3.2 4.8 0.00 0.00 0.00 30 1019.0
20260502030220 14 316 1.6 3.2 0.00 0.00 0.00 30 1019.0
20260502025721 15 323 1.6 3.2 0.00 0.00 0.00 30 1019.0
20260502025220 15 310 3.2 4.8 0.00 0.00 0.00 29 1019.0
20260502024720 15 313 3.2 4.8 0.00 0.00 0.00 29 1019.0
20260502024221 15 310 3.2 4.8 0.00 0.00 0.00 29 1019.0
20260502023721 15 321 3.2 4.8 0.00 0.00 0.00 29 1019.0
20260502023220 15 313 1.6 3.2 0.00 0.00 0.00 28 1019.0
20260502022721 15 319 3.2 6.4 0.00 0.00 0.00 28 1019.0
20260502022220 16 328 3.2 6.4 0.00 0.00 0.00 27 1019.0
20260502021720 16 324 3.2 9.7 0.00 0.00 0.00 27 1019.0
20260502021220 16 333 6.4 11.3 0.00 0.00 0.00 26 1018.0
20260502020720 16 329 4.8 8.0 0.00 0.00 0.00 27 1018.0
20260502020230 16 336 8.0 12.9 0.00 0.00 0.00 26 1018.0
20260502015721 16 344 8.0 14.5 0.00 0.00 0.00 26 1018.0
20260502015220 17 341 11.3 17.7 0.00 0.00 0.00 26 1018.0
20260502014720 17 329 9.7 12.9 0.00 0.00 0.00 26 1018.0
20260502014220 17 337 9.7 19.3 0.00 0.00 0.00 26 1018.0
20260502013720 17 339 6.4 11.3 0.00 0.00 0.00 26 1018.0
20260502013221 17 352 11.3 17.7 0.00 0.00 0.00 26 1018.0
20260502012720 17 7 12.9 19.3 0.00 0.00 0.00 26 1018.0
20260502012221 17 354 9.7 17.7 0.00 0.00 0.00 26 1018.0
20260502011720 17 345 12.9 19.3 0.00 0.00 0.00 26 1018.0
20260502011220 17 13 9.7 17.7 0.00 0.00 0.00 26 1018.0
20260502010720 17 354 9.7 16.1 0.00 0.00 0.00 26 1018.0
20260502010222 17 8 12.9 17.7 0.00 0.00 0.00 26 1018.0
20260502005720 17 3 14.5 20.9 0.00 0.00 0.00 25 1018.0
20260502005221 17 326 6.4 9.7 0.00 0.00 0.00 25 1018.0
20260502004720 17 5 12.9 16.1 0.00 0.00 0.00 25 1018.0
20260502004220 18 0 14.5 19.3 0.00 0.00 0.00 25 1018.0
20260502003720 18 356 9.7 16.1 0.00 0.00 0.00 25 1018.0
20260502003221 18 351 8.0 14.5 0.00 0.00 0.00 25 1018.0
20260502002723 18 352 11.3 19.3 0.00 0.00 0.00 24 1018.0
20260502002220 18 344 8.0 17.7 0.00 0.00 0.00 25 1018.0
20260502001720 18 341 9.7 14.5 0.00 0.00 0.00 24 1018.0
20260502001220 18 347 9.7 14.5 0.00 0.00 0.00 24 1018.0
20260502000720 18 339 4.8 14.5 0.00 0.00 0.00 25 1018.0
20260502000221 18 3 9.7 12.9 0.00 0.00 0.00 25 1018.0
20260501235722 18 330 9.7 16.1 0.00 0.00 0.00 24 1018.0
20260501235220 18 24 9.7 17.7 0.00 0.00 0.00 25 1018.0
20260501234720 18 1 19.3 25.7 0.00 0.00 0.00 24 1018.0
20260501234220 18 331 3.2 3.2 0.00 0.00 0.00 24 1018.0
20260501233721 18 356 12.9 19.3 0.00 0.00 0.00 24 1018.0
20260501233220 18 347 6.4 11.3 0.00 0.00 0.00 24 1018.0
20260501232721 18 350 12.9 20.9 0.00 0.00 0.00 24 1018.0
20260501232220 18 40 6.4 9.7 0.00 0.00 0.00 24 1018.0
20260501231721 18 351 9.7 16.1 0.00 0.00 0.00 24 1018.0
20260501231220 18 326 9.7 16.1 0.00 0.00 0.00 23 1018.0
20260501230720 18 5 6.4 9.7 0.00 0.00 0.00 23 1018.0
20260501230220 18 336 9.7 14.5 0.00 0.00 0.00 23 1018.0
20260501225720 18 13 4.8 14.5 0.00 0.00 0.00 23 1018.0
20260501225222 18 343 6.4 14.5 0.00 0.00 0.00 22 1018.0
20260501224720 18 334 3.2 4.8 0.00 0.00 0.00 23 1018.0
20260501224220 18 356 9.7 12.9 0.00 0.00 0.00 22 1018.0
20260501223720 18 41 9.7 14.5 0.00 0.00 0.00 23 1018.0
20260501223221 18 352 12.9 17.7 0.00 0.00 0.00 22 1018.0
20260501222721 18 36 14.5 17.7 0.00 0.00 0.00 22 1018.0
20260501222220 18 356 9.7 12.9 0.00 0.00 0.00 23 1018.0
20260501221721 18 15 4.8 9.7 0.00 0.00 0.00 24 1018.0
20260501221220 18 8 14.5 19.3 0.00 0.00 0.00 23 1018.0
20260501220720 18 349 12.9 17.7 0.00 0.00 0.00 23 1018.0
20260501220220 19 331 6.4 14.5 0.00 0.00 0.00 23 1018.0
20260501215721 18 322 9.7 14.5 0.00 0.00 0.00 22 1018.0
20260501215221 18 291 8.0 11.3 0.00 0.00 0.00 22 1018.0
20260501214720 18 249 8.0 11.3 0.00 0.00 0.00 22 1018.0
20260501214221 18 314 3.2 8.0 0.00 0.00 0.00 24 1018.0
20260501213721 18 342 3.2 6.4 0.00 0.00 0.00 24 1018.0
20260501213220 18 76 12.9 16.1 0.00 0.00 0.00 24 1018.0
20260501212720 18 71 6.4 12.9 0.00 0.00 0.00 23 1018.0
20260501212220 18 27 1.6 4.8 0.00 0.00 0.00 22 1018.0
20260501211720 18 321 1.6 4.8 0.00 0.00 0.00 23 1018.0
20260501211220 18 359 8.0 14.5 0.00 0.00 0.00 22 1018.0
20260501210722 18 56 8.0 14.5 0.00 0.00 0.00 24 1018.0
20260501210221 18 337 6.4 16.1 0.00 0.00 0.00 24 1018.0
20260501205720 18 69 9.7 16.1 0.00 0.00 0.00 23 1018.0
20260501205221 18 53 3.2 9.7 0.00 0.00 0.00 23 1018.0
20260501204720 18 348 4.8 8.0 0.00 0.00 0.00 23 1018.0
20260501204221 18 286 1.6 4.8 0.00 0.00 0.00 23 1018.0
20260501203720 18 49 3.2 6.4 0.00 0.00 0.00 24 1018.0
20260501203220 18 252 6.4 8.0 0.00 0.00 0.00 23 1018.0
20260501202721 17 310 0.0 1.6 0.00 0.00 0.00 23 1018.0
20260501202221 17 289 3.2 6.4 0.00 0.00 0.00 23 1018.0
20260501201720 17 328 8.0 12.9 0.00 0.00 0.00 23 1018.0
20260501201220 17 327 6.4 14.5 0.00 0.00 0.00 24 1018.0
20260501200720 17 349 8.0 14.5 0.00 0.00 0.00 24 1018.0
20260501200220 17 264 8.0 12.9 0.00 0.00 0.00 24 1018.0
20260501195720 17 50 3.2 8.0 0.00 0.00 0.00 23 1018.0
20260501195220 17 351 3.2 8.0 0.00 0.00 0.00 23 1018.0
20260501194720 17 236 11.3 17.7 0.00 0.00 0.00 23 1018.0
20260501194220 17 246 4.8 11.3 0.00 0.00 0.00 23 1018.0
20260501193720 17 167 1.6 4.8 0.00 0.00 0.00 23 1018.0
20260501193221 16 37 8.0 11.3 0.00 0.00 0.00 24 1019.0
20260501192720 17 47 6.4 11.3 0.00 0.00 0.00 24 1019.0
20260501192220 17 43 6.4 11.3 0.00 0.00 0.00 24 1018.0
20260501191721 17 42 1.6 6.4 0.00 0.00 0.00 24 1018.0
20260501191220 16 29 6.4 11.3 0.00 0.00 0.00 23 1018.0
20260501190720 16 86 8.0 11.3 0.00 0.00 0.00 23 1019.0
20260501190221 16 45 11.3 16.1 0.00 0.00 0.00 23 1019.0
20260501185720 16 44 6.4 9.7 0.00 0.00 0.00 24 1019.0
20260501185222 16 55 6.4 9.7 0.00 0.00 0.00 23 1019.0
20260501184720 16 331 4.8 9.7 0.00 0.00 0.00 22 1019.0
20260501184222 16 347 3.2 8.0 0.00 0.00 0.00 24 1019.0
20260501183720 16 297 3.2 6.4 0.00 0.00 0.00 24 1019.0
20260501183220 16 285 6.4 9.7 0.00 0.00 0.00 24 1019.0
20260501182720 16 9 11.3 14.5 0.00 0.00 0.00 23 1019.0
20260501182220 15 79 6.4 8.0 0.00 0.00 0.00 25 1019.0
20260501181721 15 42 8.0 11.3 0.00 0.00 0.00 25 1019.0
20260501181220 15 16 11.3 14.5 0.00 0.00 0.00 26 1019.0
20260501180720 15 354 3.2 6.4 0.00 0.00 0.00 27 1019.0
20260501180221 15 343 9.7 12.9 0.00 0.00 0.00 26 1019.0
20260501175720 15 302 6.4 11.3 0.00 0.00 0.00 27 1019.0
20260501175220 15 346 3.2 6.4 0.00 0.00 0.00 27 1019.0
20260501174721 15 2 8.0 12.9 0.00 0.00 0.00 27 1019.0
20260501174220 15 294 4.8 6.4 0.00 0.00 0.00 27 1019.0
20260501173720 15 333 4.8 8.0 0.00 0.00 0.00 28 1019.0
20260501173220 15 42 6.4 8.0 0.00 0.00 0.00 28 1019.0
20260501172721 15 27 3.2 4.8 0.00 0.00 0.00 30 1019.0
20260501172221 15 7 4.8 6.4 0.00 0.00 0.00 30 1019.0
20260501171720 14 13 4.8 8.0 0.00 0.00 0.00 30 1019.0
20260501171220 14 305 6.4 8.0 0.00 0.00 0.00 29 1019.0
20260501170722 14 295 8.0 11.3 0.00 0.00 0.00 29 1019.0
20260501170220 14 68 3.2 4.8 0.00 0.00 0.00 31 1019.0
20260501165721 14 58 1.6 4.8 0.00 0.00 0.00 29 1019.0
20260501165221 14 356 6.4 9.7 0.00 0.00 0.00 30 1019.0
20260501164720 14 18 0.0 3.2 0.00 0.00 0.00 33 1019.0
20260501164221 14 256 1.6 4.8 0.00 0.00 0.00 31 1019.0
20260501163721 14 265 1.6 4.8 0.00 0.00 0.00 32 1019.0
20260501163221 14 21 4.8 6.4 0.00 0.00 0.00 33 1019.0
20260501162720 14 127 4.8 6.4 0.00 0.00 0.00 31 1019.0
20260501162221 13 4 0.0 1.6 0.00 0.00 0.00 34 1019.0
20260501161720 13 259 4.8 6.4 0.00 0.00 0.00 34 1019.0
20260501161221 13 82 3.2 6.4 0.00 0.00 0.00 35 1019.0
20260501160722 13 351 1.6 3.2 0.00 0.00 0.00 36 1019.0
20260501160220 13 150 1.6 3.2 0.00 0.00 0.00 36 1019.0
20260501155721 13 18 1.6 3.2 0.00 0.00 0.00 37 1019.0
20260501155220 13 358 1.6 3.2 0.00 0.00 0.00 37 1019.0
20260501154721 12 352 4.8 6.4 0.00 0.00 0.00 38 1019.0
20260501154222 12 73 1.6 8.0 0.00 0.00 0.00 40 1019.0
20260501153720 12 8 4.8 6.4 0.00 0.00 0.00 40 1019.0
20260501153220 12 10 3.2 6.4 0.00 0.00 0.00 40 1019.0
20260501152720 12 54 3.2 4.8 0.00 0.00 0.00 41 1019.0
20260501152222 12 40 3.2 6.4 0.00 0.00 0.00 41 1019.0
20260501151720 12 40 4.8 6.4 0.00 0.00 0.00 41 1019.0
20260501151220 12 62 0.0 3.2 0.00 0.00 0.00 40 1019.0
20260501150721 12 213 1.6 3.2 0.00 0.00 0.00 41 1019.0